When you browse on this site, cookies collect data to enhance your experience and personalize the content and advertising you see.
Visit our Privacy Policy to learn more. By continuing to use the site, you agree to this use of cookies and data.
  • In Czech Republic
  • List of Countries
  • For 7 days
  • Water Temperature
  • Weather Map
  • Weather Widgets
  • user-avatar
    Login

    Hourly Weather Tibissa

    Today, 25 February, Tuesday

    Time Temperature Precipitation Wind Pressure Humidity
    00:00 +12°C° 0 mm 1 mps 688 mmHg 44%
    01:00 +12°C° 0 mm 1 mps 688 mmHg 42%
    02:00 +11°C° 0 mm 1 mps 688 mmHg 42%
    03:00 +11°C° 0 mm 1 mps 687 mmHg 42%
    04:00 +11°C° 0 mm 1 mps 687 mmHg 42%
    05:00 +9°C° 0 mm 2 mps 687 mmHg 44%
    06:00 +9°C° 0 mm 2 mps 687 mmHg 45%
    07:00 +9°C° 0 mm 2 mps 687 mmHg 46%
    08:00 +12°C° 0 mm 2 mps 687 mmHg 43%
    09:00 +14°C° 0 mm 2 mps 687 mmHg 39%
    10:00 +16°C° 0 mm 2 mps 688 mmHg 35%
    11:00 +18°C° 0 mm 3 mps 688 mmHg 31%
    12:00 +19°C° 0 mm 4 mps 687 mmHg 27%
    13:00 +20°C° 0 mm 4 mps 687 mmHg 23%
    14:00 +20°C° 0 mm 4 mps 687 mmHg 22%
    15:00 +20°C° 0 mm 5 mps 686 mmHg 21%
    16:00 +21°C° 0 mm 5 mps 686 mmHg 20%
    17:00 +19°C° 0 mm 4 mps 685 mmHg 25%
    18:00 +17°C° 0 mm 3 mps 685 mmHg 31%
    19:00 +14°C° 0 mm 3 mps 685 mmHg 36%
    20:00 +15°C° 0 mm 2 mps 685 mmHg 37%
    21:00 +14°C° 0 mm 2 mps 685 mmHg 39%
    22:00 +13°C° 0 mm 2 mps 685 mmHg 41%
    23:00 +13°C° 0 mm 2 mps 685 mmHg 42%

    Tomorrow, 26 February, Wednesday

    Time Temperature Precipitation Wind Pressure Humidity
    00:00 +12°C° 0 mm 2 mps 684 mmHg 44%
    01:00 +10°C° 0 mm 2 mps 684 mmHg 46%
    02:00 +11°C° 0 mm 1 mps 684 mmHg 48%
    03:00 +10°C° 0 mm 1 mps 683 mmHg 50%
    04:00 +10°C° 0 mm 1 mps 683 mmHg 52%
    05:00 +9°C° 0 mm 1 mps 683 mmHg 52%
    06:00 +8°C° 0 mm 2 mps 683 mmHg 53%
    07:00 +8°C° 0 mm 2 mps 683 mmHg 54%
    08:00 +10°C° 0 mm 3 mps 683 mmHg 50%
    09:00 +11°C° 0 mm 4 mps 684 mmHg 46%
    10:00 +13°C° 0 mm 5 mps 685 mmHg 41%
    11:00 +14°C° 0 mm 5 mps 685 mmHg 39%
    12:00 +15°C° 0 mm 5 mps 685 mmHg 37%
    13:00 +16°C° 0 mm 6 mps 685 mmHg 35%
    14:00 +16°C° 0 mm 6 mps 684 mmHg 36%
    15:00 +16°C° 0 mm 6 mps 684 mmHg 38%
    16:00 +15°C° 0 mm 6 mps 684 mmHg 39%
    17:00 +14°C° 0 mm 6 mps 684 mmHg 47%
    18:00 +13°C° 0 mm 5 mps 684 mmHg 55%
    19:00 +11°C° 0 mm 4 mps 684 mmHg 63%
    20:00 +10°C° 0 mm 4 mps 684 mmHg 70%
    21:00 +10°C° 0 mm 4 mps 684 mmHg 77%
    22:00 +9°C° 0 mm 3 mps 685 mmHg 84%
    23:00 +7°C° 0 mm 4 mps 685 mmHg 85%

    Day after tomorrow, 27 February, Thursday

    Time Temperature Precipitation Wind Pressure Humidity
    00:00 +6°C° 0 mm 4 mps 685 mmHg 86%
    01:00 +6°C° 0 mm 4 mps 685 mmHg 87%
    02:00 +5°C° 0 mm 4 mps 685 mmHg 85%
    03:00 +5°C° 0 mm 4 mps 685 mmHg 83%
    04:00 +4°C° 0 mm 4 mps 685 mmHg 81%
    05:00 +4°C° 0 mm 4 mps 685 mmHg 81%
    06:00 +4°C° 0 mm 4 mps 686 mmHg 81%
    07:00 +3°C° 0 mm 4 mps 686 mmHg 82%
    08:00 +5°C° 0 mm 4 mps 687 mmHg 75%
    09:00 +6°C° 0 mm 4 mps 687 mmHg 67%
    10:00 +7°C° 0 mm 4 mps 688 mmHg 60%
    11:00 +10°C° 0 mm 4 mps 688 mmHg 53%
    12:00 +11°C° 0 mm 4 mps 688 mmHg 45%
    13:00 +13°C° 0 mm 4 mps 688 mmHg 37%
    14:00 +13°C° 0 mm 4 mps 688 mmHg 35%
    15:00 +14°C° 0 mm 5 mps 688 mmHg 33%
    16:00 +14°C° 0 mm 5 mps 688 mmHg 31%
    17:00 +13°C° 0 mm 4 mps 688 mmHg 37%
    18:00 +12°C° 0 mm 3 mps 688 mmHg 43%
    19:00 +12°C° 0 mm 2 mps 688 mmHg 50%
    20:00 +10°C° 0 mm 2 mps 688 mmHg 54%
    21:00 +9°C° 0 mm 2 mps 688 mmHg 59%
    22:00 +9°C° 0 mm 2 mps 688 mmHg 63%
    23:00 +8°C° 0 mm 2 mps 688 mmHg 64%

    28 February, Friday

    Time Temperature Precipitation Wind Pressure Humidity
    00:00 +8°C° 0 mm 2 mps 688 mmHg 65%
    01:00 +8°C° 0 mm 2 mps 688 mmHg 65%
    02:00 +7°C° 0 mm 2 mps 687 mmHg 66%
    03:00 +7°C° 0 mm 2 mps 687 mmHg 66%
    04:00 +7°C° 0 mm 2 mps 687 mmHg 66%
    05:00 +7°C° 0 mm 2 mps 687 mmHg 67%
    06:00 +7°C° 0 mm 2 mps 687 mmHg 68%
    07:00 +6°C° 0 mm 2 mps 687 mmHg 69%
    08:00 +8°C° 0 mm 3 mps 688 mmHg 61%
    09:00 +11°C° 0 mm 3 mps 688 mmHg 52%
    10:00 +13°C° 0 mm 3 mps 689 mmHg 43%
    11:00 +14°C° 0 mm 3 mps 689 mmHg 38%
    12:00 +16°C° 0 mm 3 mps 689 mmHg 33%
    13:00 +17°C° 0 mm 3 mps 689 mmHg 27%
    14:00 +18°C° 0 mm 3 mps 689 mmHg 26%
    15:00 +18°C° 0 mm 2 mps 689 mmHg 25%
    16:00 +18°C° 0 mm 2 mps 688 mmHg 23%
    17:00 +17°C° 0 mm 2 mps 688 mmHg 29%
    18:00 +15°C° 0 mm 2 mps 688 mmHg 36%
    19:00 +14°C° 0 mm 2 mps 687 mmHg 42%
    20:00 +13°C° 0 mm 2 mps 687 mmHg 45%
    21:00 +12°C° 0 mm 2 mps 687 mmHg 48%
    22:00 +12°C° 0 mm 2 mps 687 mmHg 52%
    23:00 +10°C° 0 mm 2 mps 687 mmHg 53%

    29 February, Saturday

    Time Temperature Precipitation Wind Pressure Humidity
    00:00 +10°C° 0 mm 2 mps 687 mmHg 54%
    01:00 +10°C° 0 mm 2 mps 686 mmHg 55%
    02:00 +9°C° 0 mm 2 mps 686 mmHg 55%
    03:00 +9°C° 0 mm 3 mps 685 mmHg 55%
    04:00 +9°C° 0 mm 3 mps 685 mmHg 56%
    05:00 +8°C° 0 mm 4 mps 685 mmHg 56%
    06:00 +8°C° 0 mm 4 mps 685 mmHg 57%
    07:00 +7°C° 0 mm 5 mps 685 mmHg 57%
    08:00 +10°C° 0 mm 5 mps 685 mmHg 51%
    09:00 +13°C° 0 mm 6 mps 686 mmHg 44%
    10:00 +15°C° 0 mm 7 mps 686 mmHg 37%
    11:00 +17°C° 0 mm 7 mps 686 mmHg 34%
    12:00 +18°C° 0 mm 7 mps 686 mmHg 30%
    13:00 +21°C° 0 mm 7 mps 686 mmHg 27%
    14:00 +21°C° 0 mm 7 mps 686 mmHg 27%
    15:00 +21°C° 0 mm 6 mps 686 mmHg 27%
    16:00 +21°C° 0 mm 6 mps 685 mmHg 26%
    17:00 +19°C° 0 mm 4 mps 685 mmHg 33%
    18:00 +17°C° 0 mm 3 mps 685 mmHg 39%
    19:00 +15°C° 0 mm 2 mps 685 mmHg 46%
    20:00 +15°C° 0 mm 2 mps 685 mmHg 48%
    21:00 +14°C° 0 mm 1 mps 685 mmHg 50%
    22:00 +13°C° 0 mm 1 mps 685 mmHg 52%
    23:00 +13°C° 0 mm 1 mps 685 mmHg 53%

    1 March, Sunday

    Time Temperature Precipitation Wind Pressure Humidity
    00:00 +12°C° 0 mm 1 mps 685 mmHg 54%
    01:00 +12°C° 0 mm 1 mps 685 mmHg 56%
    02:00 +11°C° 0 mm 1 mps 684 mmHg 58%
    03:00 +11°C° 0 mm 1 mps 684 mmHg 61%
    04:00 +10°C° 0 mm 1 mps 684 mmHg 64%
    05:00 +10°C° 0 mm 1 mps 684 mmHg 67%
    06:00 +9°C° 0 mm 1 mps 684 mmHg 71%
    07:00 +8°C° 0 mm 0 mps 684 mmHg 75%
    08:00 +11°C° 0 mm 1 mps 685 mmHg 66%
    09:00 +13°C° 0 mm 1 mps 685 mmHg 57%
    10:00 +15°C° 0 mm 1 mps 686 mmHg 48%
    11:00 +16°C° 0 mm 1 mps 686 mmHg 42%
    12:00 +17°C° 0 mm 2 mps 686 mmHg 37%
    13:00 +19°C° 0 mm 2 mps 686 mmHg 31%
    14:00 +19°C° 0 mm 2 mps 686 mmHg 29%
    15:00 +20°C° 0 mm 3 mps 686 mmHg 28%
    16:00 +20°C° 0 mm 3 mps 685 mmHg 26%
    17:00 +19°C° 0 mm 3 mps 685 mmHg 32%
    18:00 +17°C° 0 mm 3 mps 685 mmHg 38%
    19:00 +16°C° 0 mm 3 mps 685 mmHg 44%
    20:00 +15°C° 0 mm 2 mps 685 mmHg 48%
    21:00 +14°C° 0 mm 2 mps 685 mmHg 52%
    22:00 +14°C° 0 mm 1 mps 685 mmHg 56%
    23:00 +13°C° 0 mm 1 mps 685 mmHg 59%
    Show more